DateTimeUTC,F1_A11,F1_S11,BsB_S11,BsG_S11,BsR_S11,BbsB_S11,BbsG_S11,BbsR_S11,BaB_A11,BaG_A11,BaR_A11,Tu_S11,T_S11,Uu_S11,U_S11,P_S11,T1_A11
2021-01-25T08:00:00Z,00000200,21000000,,,,,,,0000.22,-000.11,-000.10,15.2,22.6,,00.0,0646.8,30.8
2021-01-25T08:01:00Z,00000200,21000000,,,,,,,0000.08,0000.14,-000.01,15.2,22.6,,00.0,0646.8,30.9
2021-01-25T08:02:00Z,00000200,21000000,,,,,,,0000.10,0000.03,-000.15,15.2,22.6,,00.0,0646.8,30.9
2021-01-25T08:03:00Z,00000200,61000000,,,,,,,-000.04,0000.10,0000.36,15.2,22.7,,00.0,0646.8,30.9
2021-01-25T08:04:00Z,00000200,41000000,0000.39,0000.44,0000.07,-000.43,0000.17,-000.13,0000.18,0000.15,-000.04,15.6,22.5,,00.0,0647.6,30.9
2021-01-25T08:05:00Z,00000200,01000000,-000.06,0000.56,-000.08,0000.24,0000.10,0000.12,0000.07,-000.14,-000.22,15.7,22.5,,00.0,0647.6,30.9
2021-01-25T08:06:00Z,00000200,01000000,0000.11,0000.30,-000.07,-000.33,0000.07,-000.01,0000.12,0000.56,0000.16,15.6,22.4,,00.0,0647.6,30.9
2021-01-25T08:07:00Z,00000200,01000000,0000.13,0000.39,0000.02,-000.42,-000.15,0000.32,0000.49,0000.00,0000.21,15.6,22.4,,00.0,0647.6,30.9
2021-01-25T08:08:00Z,00000200,01000000,0001.02,0000.34,0000.29,-000.07,0000.37,-000.05,0000.00,0000.31,0000.32,15.6,22.4,,00.0,0647.6,30.9
2021-01-25T08:09:00Z,00000200,01000000,0000.58,0000.10,-000.29,0000.12,0000.23,0000.03,0000.18,-000.04,0000.10,15.5,22.4,,00.0,0647.6,30.9
2021-01-25T08:10:00Z,00000200,01000000,0000.34,0000.58,0000.12,-000.34,-000.14,0000.48,-000.18,0000.17,0000.13,15.4,22.3,,00.0,0647.6,30.9
2021-01-25T08:11:00Z,00000200,01000000,0000.22,0000.31,0000.06,-000.03,0000.30,0000.14,-000.04,-000.75,-000.33,15.4,22.3,,00.0,0647.5,30.8
2021-01-25T08:12:00Z,00000200,01000000,0000.66,0000.30,0000.06,-000.28,0000.19,0000.17,-000.01,0000.28,0000.31,15.4,22.2,,00.0,0647.5,30.8
2021-01-25T08:13:00Z,00000200,01000000,0001.21,0000.36,0000.02,-000.13,0000.08,0000.28,0000.31,0000.14,-000.01,15.4,22.3,,00.0,0647.5,30.8
2021-01-25T08:14:00Z,00000200,01000000,0000.22,0000.26,-000.12,0000.04,0000.09,-000.15,-000.17,0000.19,0000.09,15.4,22.2,,00.0,0647.6,30.8
2021-01-25T08:15:00Z,00000200,01000000,0000.15,0000.39,0000.15,-000.23,0000.08,-000.03,0000.17,0000.15,0000.04,15.4,22.3,,00.0,0647.6,30.8
2021-01-25T08:16:00Z,00000200,01000000,0000.35,0000.20,0000.22,-000.63,0000.20,0000.12,-000.20,0000.07,-000.24,15.4,22.3,,00.0,0647.6,30.8
2021-01-25T08:17:00Z,00000200,01000000,0000.26,0000.15,0000.01,-000.25,-000.08,-000.13,0000.59,0000.46,0000.37,15.5,22.3,,00.0,0647.6,30.8
2021-01-25T08:18:00Z,00000200,01000000,0000.53,0000.33,-000.01,-000.17,0000.10,-000.10,0000.12,-000.33,0000.14,15.5,22.3,,00.0,0647.7,30.8
2021-01-25T08:19:00Z,00000200,01000000,0000.97,0000.42,0000.16,-000.39,0000.21,0000.03,-000.05,0000.42,0000.06,15.5,22.3,,00.0,0647.8,30.9
2021-01-25T08:20:00Z,00000200,01000000,0000.87,0000.12,-000.15,-000.54,0000.18,0000.03,-000.05,0000.14,0000.06,15.6,22.3,,00.0,0647.7,30.9
2021-01-25T08:21:00Z,00000200,01000000,0001.05,0000.34,-000.05,-000.25,0000.30,-000.15,0000.40,0000.39,0000.48,15.6,22.3,,00.0,0647.6,30.9
2021-01-25T08:22:00Z,00000200,01000000,0000.40,0000.33,-000.02,-000.11,0000.14,-000.26,0000.32,0000.15,-000.28,15.7,22.3,,00.0,0647.7,30.9
2021-01-25T08:23:00Z,00000200,01000000,0000.15,0000.10,0000.18,0000.14,0000.07,-000.06,0000.07,-000.16,0000.12,15.7,22.3,,00.0,0647.7,30.9
2021-01-25T08:24:00Z,00000200,01000000,0000.22,0000.30,0000.26,-000.72,0000.22,0000.03,-000.18,0000.24,0000.40,15.6,22.3,,00.0,0647.7,30.9
2021-01-25T08:25:00Z,00000200,01000000,-000.06,0000.44,0000.04,-000.05,0000.04,0000.08,-000.01,-000.34,-000.02,15.6,22.3,,00.0,0647.8,30.9
2021-01-25T08:26:00Z,00000200,01000000,0000.65,0000.26,-000.04,-000.19,-000.10,0000.05,-000.31,-000.73,-000.58,15.5,22.3,,00.0,0647.9,30.9
2021-01-25T08:27:00Z,00000200,01000000,0000.17,0000.14,-000.10,0000.24,0000.11,0000.15,0000.04,0000.78,0000.36,15.5,22.2,,00.0,0647.9,30.9
2021-01-25T08:28:00Z,00000200,01000000,0000.76,0000.07,-000.06,-000.17,0000.19,-000.06,-000.16,-000.07,-000.27,15.5,22.2,,00.0,0648.0,30.8
2021-01-25T08:29:00Z,00000200,01000000,0000.40,0000.07,-000.11,-000.37,0000.25,0000.13,0000.30,-000.07,-000.08,15.5,22.2,,00.0,0647.9,30.8
2021-01-25T08:30:00Z,00000200,01000000,-000.57,-000.03,0000.16,0000.03,-000.08,-000.10,0000.20,-000.35,0000.45,15.5,22.3,,00.0,0647.9,30.8
2021-01-25T08:31:00Z,00000200,01000000,0000.58,0000.04,-000.29,-000.13,0000.11,-000.23,0000.14,0000.19,-000.05,15.6,22.3,,00.0,0648.0,30.8
2021-01-25T08:32:00Z,00000200,01000000,0000.03,0000.22,-000.16,0000.16,0000.06,-000.08,-000.03,0000.37,0000.03,15.6,22.3,,00.0,0648.1,30.9
2021-01-25T08:33:00Z,00000200,01000000,0000.55,0000.17,-000.25,-000.07,0000.02,-000.18,-000.23,-000.29,-000.40,15.6,22.3,,00.0,0648.2,30.9
2021-01-25T08:34:00Z,00000200,01000000,0000.07,0000.29,-000.32,-000.60,0000.11,-000.10,-000.22,-000.17,0000.35,15.6,22.3,,00.0,0648.3,30.9
2021-01-25T08:35:00Z,00000200,01000000,-000.36,0000.01,0000.24,-000.12,0000.18,0000.22,-000.49,-000.98,-000.40,15.6,22.3,,00.0,0648.3,30.9
2021-01-25T08:36:00Z,00000200,01000000,0000.60,0000.03,0000.06,-000.11,0000.11,0000.11,-000.13,0000.54,0000.09,15.6,22.3,,00.0,0648.1,30.9
2021-01-25T08:37:00Z,00000200,01000000,0001.05,0000.12,-000.03,-000.33,0000.12,0000.04,0000.79,0000.69,0000.53,15.6,22.3,,00.0,0648.0,30.9
2021-01-25T08:38:00Z,00000200,01000000,0001.23,0000.34,-000.05,0000.24,0000.09,0000.05,0000.70,0000.70,0000.31,15.5,22.3,,00.0,0648.0,30.9
2021-01-25T08:39:00Z,00000200,01000000,0000.49,0000.11,-000.06,-000.40,0000.06,0000.15,0000.61,0000.28,0000.14,15.5,22.3,,00.0,0648.0,30.9
2021-01-25T08:40:00Z,00000200,01000000,0000.55,-000.07,0000.11,-000.06,-000.10,-000.09,-000.01,0000.03,0000.19,15.4,22.2,,00.0,0648.1,30.9
2021-01-25T08:41:00Z,00000200,01000000,0000.26,0000.14,-000.06,-000.80,0000.13,-000.24,-000.85,-001.07,-000.61,15.3,22.2,,00.0,0648.1,30.8
2021-01-25T08:42:00Z,00000200,01000000,-000.12,-000.14,-000.01,0000.02,0000.28,-000.04,0000.24,0000.36,0000.28,15.3,22.1,,00.0,0648.0,30.8
2021-01-25T08:43:00Z,00000200,01000000,0000.48,0000.50,0000.12,-000.66,-000.14,0000.18,0000.18,0000.26,0000.22,15.3,22.1,,00.0,0648.1,30.8
2021-01-25T08:44:00Z,00000200,01000000,0000.28,0000.24,0000.04,-000.30,-000.14,0000.03,0000.47,0000.47,0000.03,15.3,22.2,,00.0,0648.2,30.8
2021-01-25T08:45:00Z,00000200,01000000,0000.75,0000.68,-000.13,-000.23,0000.06,-000.08,-000.15,-000.23,-000.00,15.4,22.2,,00.0,0648.2,30.8
2021-01-25T08:46:00Z,00000200,01000000,0000.23,0000.28,0000.29,-000.21,-000.02,0000.01,0000.19,-000.12,0000.16,15.4,22.2,,00.0,0648.1,30.8
2021-01-25T08:47:00Z,00000200,01000000,-000.08,0000.07,-000.15,-000.13,-000.09,0000.05,0000.44,0000.81,0000.40,15.4,22.2,,00.0,0647.9,30.8
2021-01-25T08:48:00Z,00000200,01000000,0000.09,0000.38,-000.11,-000.79,-000.06,-000.05,0000.82,0000.29,0000.75,15.4,22.2,,00.0,0647.9,30.8
2021-01-25T08:49:00Z,00000200,01000000,0000.24,0000.14,-000.17,-000.20,-000.23,0000.02,0000.45,0001.12,0000.27,15.5,22.2,,00.0,0648.0,30.8
2021-01-25T08:50:00Z,00000200,01000000,0000.50,0000.38,-000.02,-000.18,-000.02,-000.21,-000.27,-000.52,-000.26,15.5,22.2,,00.0,0648.2,30.8
2021-01-25T08:51:00Z,00000200,01000000,0000.53,0000.39,-000.01,0000.13,0000.17,0000.12,-000.30,-000.70,-000.40,15.5,22.2,,00.0,0648.2,30.9
2021-01-25T08:52:00Z,00000200,01000000,0000.36,0000.47,0000.00,-000.31,0000.22,-000.26,-000.21,0000.22,0000.11,15.5,22.2,,00.0,0648.1,30.9
2021-01-25T08:53:00Z,00000200,01000000,0000.69,0000.27,-000.08,0000.42,0000.23,0000.02,0000.85,0000.90,0000.65,15.5,22.2,,00.0,0647.9,30.9
2021-01-25T08:54:00Z,00000200,01000000,0000.46,-000.10,-000.21,-000.09,0000.26,-000.11,0000.55,0000.98,0000.27,15.4,22.2,,00.0,0647.9,30.9
2021-01-25T08:55:00Z,00000200,01000000,0000.56,0000.13,-000.20,-000.24,-000.20,0000.16,0000.23,-000.34,0000.00,15.4,22.2,,00.0,0647.9,30.8
2021-01-25T08:56:00Z,00000200,01000000,0001.00,0000.52,-000.03,0000.17,0000.07,0000.07,0000.11,-000.02,0000.29,15.3,22.1,,00.0,0647.9,30.8
2021-01-25T08:57:00Z,00000200,41000000,,,,,,,0001.30,0001.38,0000.33,15.3,22.2,,00.0,0647.8,30.8
2021-01-25T08:58:00Z,00000200,61000000,,,,,,,-000.13,-000.45,0000.01,14.9,22.3,,00.0,0646.9,30.8
2021-01-25T08:59:00Z,00000200,21000000,,,,,,,-000.36,0000.33,-000.33,14.9,22.4,,00.0,0646.9,30.8
